SCP
0 0 0 0 0 0 0 0 0 0 0 0 0 0 0 0 0 0 0 0 0 0 0 0 0 0 0 0 0 0 0 0 0 0 0 0 0 0 0 0 0 0 0
0 0 0 0 0 0 0 0 0 0 0 0 0 0 0 0 0 0 0 0 0 0 0 0 0 0 0 0 0 0 0 0 0 0 0 0 0 0 0 0 0 0 0
0 0 0 0 0 0 0 0 0 0 0 0 0 0 0 0 0 0 0 0 0 0 0 0 0 0 0 0 0 0 0 0 0 0 0 0 0 0 0 0 0 0 0
0 0 0 0 0 0 0 0 0 0 0 0 0 0 0 0 0 0 0 0 0 0 0 0 0 0 0 0 0 0 0 0 0 0 0 0 0 0 0 0 0 0 0
0 0 0 0 0 0 0 0 0 0 0 0 0 0 0 0 0 0 0 0 0 0 0 0 0 0 0 0 0 0 0 0 0 0 0 0 0 0 0 0 0 0 0
0 0 0 0 0 0 0 0 0 0 0 0 0 0 0 0 0 0 0 0 0 0 0 0 0 0 0 0 0 0 0 0 0 0 0 0 0 0 0 0 0 0 0
0 0 0 0 0 0 0 0 0 0 0 0 0 0 0 0 0 0 0 0 0 0 0 0 0 0 0 0 0 0 0 0 0 0 0 0 0 0 0 0 0 0 0
0 0 0 0 0 0 0 0 0 0 0 0 0 0 0 0 0 0 0 0 0 0 0 0 0 0 0 0 0 0 0 0 0 0 0 0 0 0 0 0 0 0 0
0 0 0 0 0 0 0 0 0 0 0 0 0 0 0 0 0 0 0 0 0 0 0 0 0 0 0 0 0 0 0 0 0 0 0 0 0 0 0 0 0 0 0
0 0 0 0 0 0 0 0 0 0 0 0 0 0 0 0 0 0 0 0 0 0 0 0 0 0 0 0 0 0 0 0 0 0 0 0 0 0 0 0 0 0 0
0 0 0 0 0 0 0 0 0 0 0 0 0 0 0 0 0 0 0 0 0 0 0 0 0 0 0 0 0 0 0 0 0 0 0 0 0 0 0 0 0 0 0
0 0 0 0 0 0 0 -0 0 0 0 0 0 0 0 0 0 0 0 0 0 0 0 0 0 0 0 0 0 0 0 0 0 0 0 0 0 0 0 0 0 0 0
0 0 0 0 0 0 0 0 0 0 0 0 0 0 0 0 0 0 0 0 0 0 0 0 0 0 0 0 0 0 0 0 0 0 0 0 0 0 0 0 0 0 0
0 0 0 0 0 0 0 0 0 0 0 0 0 0 0 0 0 0 0 0 0 0 0 0 0 0 0 0 0 0 0 0 0 0 0 0 0 0 0 0 0 0 0
0 0 0 0 0 0 0 0 0 0 0 0 0 0 0 0 0 0 0 0 0 0 0 0 0 0 0 0 0 0 0 0 0 0 0 0 0 0 0 0 0 0 0
0 0 0 0 0 0 0 0 0 0 0 0 0 0 0 0 0 0 0 0 0 0 0 0 0 0 0 0 0 0 0 0 0 0 0 0 0 0 0 0 0 0 0
0 0 0 0 0 0 0 0 0 0 0 0 0 0 0 0 0 0 0 0 0 0 0 0 0 0 0 0 0 0 0 0 0 0 0 0 0 0 0 0 0 0 0
0 0 0 0 0 0 0 0 0 0 0 0 0 0 0 0 0 0 0 0 0 0 0 0 0 0 0 0 0 0 0 0 0 0 0 0 0 0 0 0 0 0 0
0 0 0 0 0 0 0 0 0 0 0 0 0 0 0 0 0 0 0 0 0 0 0 0 0 0 0 0 0 0 0 0 0 0 0 0 0 0 0 0 0 0 0
0 0 0 0 0 0 0 0 0 0 0 0 0 0 0 0 0 0 0 0 0 0 0 0 0 0 0 0 0 0 0 0 0 0 0 0 0 0 0 0 0 0 0
0 0 0 0 0 0 0 0 0 0 0 0 0 0 0 0 0 0 0 0 0 0 0 0 0 0 0 0 0 0 0 0 0 0 0 0 0 0 0 0 0 0 0
0 0 0 0 0 0 0 0 0 0 0 0 0 0 0 0 0 0 0 0 0 0 0 0 0 0 0 0 0 0 0 0 0 0 0 0 0 0 0 0 0 0 0
0 0 0 0 0 0 0 0 0 0 0 0 0 0 0 0 0 0 0 0 0 0 0 0 0 0 0 0 0 0 0 0 0 0 0 0 0 0 0 0 0 0 0
0 0 0 0 0 0 0 0 0 0 0 0 0 0 0 0 0 0 0 0 0 0 0 0 0 0 0 0 0 0 0 0 0 0 0 0 0 0 0 0 0 -0 -0
0 0 0 -0 -0 -0 -0 0 0 0 0 0 0 0 0 0 -0 0 0 0 0 0 0 0 0 0 0 0 0 0 0 0 0 0 0 0 0 0 0 0 0 0 0
0 0 0 0 0 0 0 -0 -0 0 -0 -0 0 0 0 0 0 0 0 0 0 0 0 0 0 0 0 0 0 0 0 0 0 0 0 0 0 0 -0 -0 -0 0 0
Wind_Speed_500mb
27 32 33 33 67 59 60 66 65 67 77 59 60 41 48 56 62 52 44 40 41 34 33 35 31 31 34 35 34 34 34 34 33 32 32 32 32 32 32 32 29 26 23
31 25 31 38 32 55 57 58 56 65 71 55 46 49 37 49 54 58 47 43 38 34 30 34 29 26 28 29 32 34 36 35 37 36 35 35 35 34 35 34 32 28 27
45 33 26 27 25 42 47 55 54 51 36 42 50 46 43 38 48 55 52 47 48 43 39 39 33 29 26 30 31 36 38 36 37 38 37 37 36 36 38 36 32 30 28
47 47 32 28 30 31 33 48 35 52 47 36 34 44 51 39 43 52 52 52 53 47 46 46 40 36 36 37 36 35 39 43 42 44 42 40 38 36 38 36 35 35 37
46 47 46 34 30 29 32 30 42 44 54 47 45 53 49 50 47 48 48 53 54 47 51 52 48 44 40 37 38 41 46 46 49 44 41 40 43 46 46 42 42 44 41
52 50 48 34 24 38 36 40 46 48 38 47 62 62 55 52 57 54 46 45 30 34 40 56 53 52 49 47 46 45 42 39 55 49 56 57 52 51 54 54 49 45 38
47 47 59 50 38 33 39 35 39 42 45 54 63 60 46 55 61 71 69 51 43 36 35 49 46 45 45 48 52 52 45 45 57 65 70 59 64 48 47 48 40 46 51
40 51 45 53 51 34 29 35 31 38 40 49 73 65 46 50 68 66 72 74 73 77 77 67 55 58 56 48 39 53 45 46 63 79 70 60 61 47 51 54 53 53 52
46 49 48 58 59 49 40 38 38 44 45 59 66 48 28 19 52 59 65 67 73 55 59 62 63 62 52 55 53 44 50 62 73 78 68 69 56 52 57 57 57 57 56
50 53 54 49 60 71 53 48 48 45 45 58 68 67 40 38 39 28 56 54 55 58 54 63 63 62 59 60 62 62 67 71 75 75 77 78 69 61 63 56 58 60 58
44 45 48 44 41 62 79 65 54 52 47 55 68 75 58 53 46 40 41 57 59 60 58 58 63 65 69 73 75 77 81 86 81 88 83 74 65 61 60 51 47 48 47
37 38 42 45 42 49 57 60 51 56 59 51 58 68 74 62 57 48 35 55 61 59 63 61 61 64 70 73 78 81 90 89 81 70 61 63 56 63 58 49 47 48 59
40 35 35 34 34 45 49 51 56 57 47 54 53 61 61 63 63 57 60 47 55 58 55 60 65 70 70 68 66 66 61 60 53 53 52 50 50 51 48 47 52 52 57
37 29 28 30 31 41 42 47 49 59 58 49 48 59 58 63 62 62 67 57 45 57 61 61 70 72 72 68 63 56 49 46 42 40 40 42 47 47 48 49 46 47 48
25 23 24 23 24 30 31 38 45 53 65 52 53 51 48 75 75 76 79 76 74 54 63 60 53 69 68 64 61 52 48 42 38 39 41 43 41 43 39 39 43 48 51
20 19 20 19 16 21 25 28 30 33 39 49 49 46 51 50 46 58 59 57 64 61 52 62 60 55 62 57 50 39 39 40 41 42 43 40 34 34 39 43 47 49 52
11 14 17 19 25 25 27 27 28 29 34 35 37 37 41 44 47 43 48 49 50 48 51 44 50 46 38 44 42 41 39 36 33 29 28 31 37 42 44 46 49 51 54
18 20 23 27 31 32 30 32 31 31 30 25 24 25 24 25 27 24 26 27 26 30 31 35 43 43 42 40 39 33 26 24 26 28 32 37 41 43 45 47 45 48 55
21 23 25 31 33 34 32 35 34 34 34 35 33 33 32 27 26 30 29 28 30 28 22 16 28 36 31 30 23 21 23 24 28 30 34 38 40 40 42 44 51 55 57
32 38 42 46 47 46 47 48 48 49 49 50 47 44 41 34 32 28 30 23 19 17 21 25 28 29 24 21 20 21 22 25 28 31 33 34 35 35 45 50 51 52 46
60 65 64 62 60 57 55 53 51 50 47 47 45 42 40 35 31 31 28 28 23 19 19 22 20 19 14 15 17 21 23 26 30 31 30 29 41 42 44 46 47 44 45
60 60 63 64 64 61 54 51 48 49 49 48 49 44 39 34 31 29 28 25 22 19 14 13 13 12 12 10 17 22 27 31 32 37 49 39 50 44 48 47 47 49 46
57 56 54 52 57 55 45 43 40 41 40 39 37 34 32 29 25 23 21 16 12 8 5 5 3 4 9 15 21 26 30 34 36 40 59 61 53 57 56 54 56 57 39
47 45 43 42 44 45 39 35 32 31 31 31 29 26 22 21 19 17 13 10 7 3 1 3 7 10 13 20 27 34 38 43 44 41 54 72 60 62 67 67 63 46 30
37 38 37 35 33 36 32 29 25 24 24 23 22 19 16 14 13 11 9 7 6 8 11 14 15 19 24 29 33 37 39 45 52 46 54 61 64 80 81 74 54 42 67
28 27 27 26 25 24 23 21 18 16 15 14 13 11 9 8 9 8 7 7 10 12 13 16 19 22 27 31 35 39 43 46 51 53 48 64 73 73 64 60 37 73 75
Wind_Direction_500mb
244 253 244 246 233 231 229 227 227 231 225 215 193 197 205 195 199 202 208 199 206 213 219 223 225 231 228 229 234 222 223 219 217 217 215 212 209 205 203 204 201 204 213
254 237 241 247 225 229 229 226 222 223 226 187 182 187 203 206 205 209 206 211 218 227 226 215 212 217 218 221 221 221 217 222 217 218 217 216 213 210 211 210 212 218 229
244 248 228 235 248 208 213 210 187 175 184 179 180 183 188 208 211 214 215 215 221 220 222 217 211 220 225 224 229 217 222 226 225 222 220 219 217 214 216 217 221 228 233
239 242 235 224 221 214 202 197 187 196 195 181 184 194 193 202 221 217 220 221 223 218 220 221 225 223 223 225 229 231 229 228 224 224 220 220 217 220 223 224 226 227 237
235 237 235 220 215 218 201 208 194 169 172 178 185 182 186 210 231 227 230 230 226 219 220 221 229 233 233 234 234 235 237 239 234 224 221 224 224 225 239 232 235 243 249
236 231 225 216 212 215 199 205 219 205 200 191 192 188 192 205 216 224 227 235 225 222 220 230 231 237 239 241 244 244 239 238 226 215 219 214 222 222 232 235 229 213 233
229 233 232 234 213 224 210 207 209 218 209 208 196 201 209 206 216 216 218 226 231 234 235 242 227 239 240 244 248 253 250 236 221 213 219 224 223 223 222 224 237 247 252
234 229 228 230 231 212 211 217 207 215 208 217 206 202 190 200 212 219 222 223 225 235 232 231 231 235 232 232 239 246 236 217 203 200 217 219 213 222 243 247 246 253 257
216 222 221 222 230 216 218 223 211 224 206 226 229 195 178 191 211 201 218 229 230 219 219 228 235 231 229 232 204 181 213 211 208 214 221 211 225 241 248 259 260 259 265
215 219 224 220 216 229 226 226 219 220 224 222 224 221 208 203 189 199 216 214 215 229 219 234 216 222 227 221 232 236 224 217 224 220 217 224 250 264 253 262 265 261 261
212 220 227 229 221 217 220 234 227 221 222 234 223 228 226 202 210 212 207 217 217 221 227 222 215 210 207 207 216 218 228 234 228 233 234 246 250 255 266 261 259 261 272
226 223 230 228 223 220 226 229 233 230 227 228 235 230 225 219 215 215 212 210 214 218 216 210 208 205 206 211 215 224 220 214 220 225 239 243 254 264 259 257 261 268 269
233 239 230 229 233 227 228 228 225 227 231 232 241 233 237 247 234 236 230 212 208 212 213 215 215 215 215 216 218 220 223 227 233 237 246 254 256 256 250 261 274 279 276
238 236 235 231 222 229 224 221 221 224 226 230 233 237 240 229 237 238 247 231 215 217 219 220 221 220 223 226 229 232 236 244 252 256 255 254 255 255 265 278 283 281 282
235 235 239 232 216 215 219 219 217 216 221 227 233 242 233 236 235 240 242 243 242 226 220 222 221 224 226 227 230 234 241 250 255 258 261 263 268 277 286 282 280 278 281
237 231 226 219 223 216 209 206 211 218 217 222 229 238 249 255 248 242 243 248 240 236 226 226 224 230 224 226 232 239 244 248 253 257 264 273 278 272 270 271 273 276 278
249 241 215 213 217 204 199 192 188 189 197 212 223 231 226 237 244 236 244 241 236 238 240 218 223 218 221 224 228 232 239 244 255 269 273 275 275 274 275 276 277 279 282
213 205 199 195 193 182 184 184 181 181 182 191 189 196 206 201 198 207 210 212 220 218 224 203 197 202 205 211 221 226 242 251 255 264 268 270 274 279 284 285 285 290 294
174 168 165 163 159 152 155 156 152 149 151 152 147 147 150 151 148 153 146 141 151 155 166 174 189 191 196 205 219 234 247 261 269 271 276 281 288 291 289 286 289 291 292
139 135 134 131 129 130 132 131 130 132 133 133 132 129 123 124 122 120 118 122 126 147 154 151 170 175 182 196 222 244 258 268 275 281 286 290 288 286 286 290 295 296 299
129 126 123 121 120 120 119 121 122 121 121 119 117 117 119 119 121 118 115 120 119 123 133 138 153 174 187 216 239 255 272 285 290 295 288 290 293 295 294 296 298 301 303
118 118 119 121 121 117 118 118 119 120 120 119 120 120 119 118 117 116 119 119 121 125 128 145 158 180 202 247 277 292 297 304 315 308 306 298 303 304 303 300 301 305 305
113 113 113 115 113 112 114 114 116 117 117 116 114 116 119 119 119 115 110 114 116 113 153 169 200 271 288 290 295 298 304 308 307 310 310 307 308 311 307 308 311 310 309
116 116 115 116 113 110 111 109 109 110 113 115 116 118 118 116 110 100 97 90 80 100 106 310 292 294 301 302 306 311 316 311 309 314 310 310 318 311 311 314 316 314 305
111 113 111 111 113 113 114 115 115 117 117 117 115 114 108 99 88 84 68 51 18 347 344 331 319 310 310 308 308 307 309 309 309 315 315 310 316 316 314 315 315 315 314
113 111 113 113 112 112 112 111 113 115 114 112 107 97 82 63 50 46 25 352 331 326 319 318 316 315 311 309 308 307 307 308 309 317 316 315 314 320 318 314 310 306 312
Wind_Speed_850mb
27 32 33 33 67 59 60 66 65 67 77 59 60 41 48 56 62 52 44 40 41 34 33 35 31 31 34 35 34 34 34 34 33 32 32 32 32 32 32 32 29 26 23
31 25 31 38 32 55 57 58 56 65 71 55 46 49 37 49 54 58 47 43 38 34 30 34 29 26 28 29 32 34 36 35 37 36 35 35 35 34 35 34 32 28 27
45 33 26 27 25 42 47 55 54 51 36 42 50 46 43 38 48 55 52 47 48 43 39 39 33 29 26 30 31 36 38 36 37 38 37 37 36 36 38 36 32 30 28
47 47 32 28 30 31 33 48 35 52 47 36 34 44 51 39 43 52 52 52 53 47 46 46 40 36 36 37 36 35 39 43 42 44 42 40 38 36 38 36 35 35 37
46 47 46 34 30 29 32 30 42 44 54 47 45 53 49 50 47 48 48 53 54 47 51 52 48 44 40 37 38 41 46 46 49 44 41 40 43 46 46 42 42 44 41
52 50 48 34 24 38 36 40 46 48 38 47 62 62 55 52 57 54 46 45 30 34 40 56 53 52 49 47 46 45 42 39 55 49 56 57 52 51 54 54 49 45 38
47 47 59 50 38 33 39 35 39 42 45 54 63 60 46 55 61 71 69 51 43 36 35 49 46 45 45 48 52 52 45 45 57 65 70 59 64 48 47 48 40 46 51
40 51 45 53 51 34 29 35 31 38 40 49 73 65 46 50 68 66 72 74 73 77 77 67 55 58 56 48 39 53 45 46 63 79 70 60 61 47 51 54 53 53 52
46 49 48 58 59 49 40 38 38 44 45 59 66 48 28 19 52 59 65 67 73 55 59 62 63 62 52 55 53 44 50 62 73 78 68 69 56 52 57 57 57 57 56
50 53 54 49 60 71 53 48 48 45 45 58 68 67 40 38 39 28 56 54 55 58 54 63 63 62 59 60 62 62 67 71 75 75 77 78 69 61 63 56 58 60 58
44 45 48 44 41 62 79 65 54 52 47 55 68 75 58 53 46 40 41 57 59 60 58 58 63 65 69 73 75 77 81 86 81 88 83 74 65 61 60 51 47 48 47
37 38 42 45 42 49 57 60 51 56 59 51 58 68 74 62 57 48 35 55 61 59 63 61 61 64 70 73 78 81 90 89 81 70 61 63 56 63 58 49 47 48 59
40 35 35 34 34 45 49 51 56 57 47 54 53 61 61 63 63 57 60 47 55 58 55 60 65 70 70 68 66 66 61 60 53 53 52 50 50 51 48 47 52 52 57
37 29 28 30 31 41 42 47 49 59 58 49 48 59 58 63 62 62 67 57 45 57 61 61 70 72 72 68 63 56 49 46 42 40 40 42 47 47 48 49 46 47 48
25 23 24 23 24 30 31 38 45 53 65 52 53 51 48 75 75 76 79 76 74 54 63 60 53 69 68 64 61 52 48 42 38 39 41 43 41 43 39 39 43 48 51
20 19 20 19 16 21 25 28 30 33 39 49 49 46 51 50 46 58 59 57 64 61 52 62 60 55 62 57 50 39 39 40 41 42 43 40 34 34 39 43 47 49 52
11 14 17 19 25 25 27 27 28 29 34 35 37 37 41 44 47 43 48 49 50 48 51 44 50 46 38 44 42 41 39 36 33 29 28 31 37 42 44 46 49 51 54
18 20 23 27 31 32 30 32 31 31 30 25 24 25 24 25 27 24 26 27 26 30 31 35 43 43 42 40 39 33 26 24 26 28 32 37 41 43 45 47 45 48 55
21 23 25 31 33 34 32 35 34 34 34 35 33 33 32 27 26 30 29 28 30 28 22 16 28 36 31 30 23 21 23 24 28 30 34 38 40 40 42 44 51 55 57
32 38 42 46 47 46 47 48 48 49 49 50 47 44 41 34 32 28 30 23 19 17 21 25 28 29 24 21 20 21 22 25 28 31 33 34 35 35 45 50 51 52 46
60 65 64 62 60 57 55 53 51 50 47 47 45 42 40 35 31 31 28 28 23 19 19 22 20 19 14 15 17 21 23 26 30 31 30 29 41 42 44 46 47 44 45
60 60 63 64 64 61 54 51 48 49 49 48 49 44 39 34 31 29 28 25 22 19 14 13 13 12 12 10 17 22 27 31 32 37 49 39 50 44 48 47 47 49 46
57 56 54 52 57 55 45 43 40 41 40 39 37 34 32 29 25 23 21 16 12 8 5 5 3 4 9 15 21 26 30 34 36 40 59 61 53 57 56 54 56 57 39
47 45 43 42 44 45 39 35 32 31 31 31 29 26 22 21 19 17 13 10 7 3 1 3 7 10 13 20 27 34 38 43 44 41 54 72 60 62 67 67 63 46 30
37 38 37 35 33 36 32 29 25 24 24 23 22 19 16 14 13 11 9 7 6 8 11 14 15 19 24 29 33 37 39 45 52 46 54 61 64 80 81 74 54 42 67
28 27 27 26 25 24 23 21 18 16 15 14 13 11 9 8 9 8 7 7 10 12 13 16 19 22 27 31 35 39 43 46 51 53 48 64 73 73 64 60 37 73 75
Wind_Direction_850mb
244 253 244 246 233 231 229 227 227 231 225 215 193 197 205 195 199 202 208 199 206 213 219 223 225 231 228 229 234 222 223 219 217 217 215 212 209 205 203 204 201 204 213
254 237 241 247 225 229 229 226 222 223 226 187 182 187 203 206 205 209 206 211 218 227 226 215 212 217 218 221 221 221 217 222 217 218 217 216 213 210 211 210 212 218 229
244 248 228 235 248 208 213 210 187 175 184 179 180 183 188 208 211 214 215 215 221 220 222 217 211 220 225 224 229 217 222 226 225 222 220 219 217 214 216 217 221 228 233
239 242 235 224 221 214 202 197 187 196 195 181 184 194 193 202 221 217 220 221 223 218 220 221 225 223 223 225 229 231 229 228 224 224 220 220 217 220 223 224 226 227 237
235 237 235 220 215 218 201 208 194 169 172 178 185 182 186 210 231 227 230 230 226 219 220 221 229 233 233 234 234 235 237 239 234 224 221 224 224 225 239 232 235 243 249
236 231 225 216 212 215 199 205 219 205 200 191 192 188 192 205 216 224 227 235 225 222 220 230 231 237 239 241 244 244 239 238 226 215 219 214 222 222 232 235 229 213 233
229 233 232 234 213 224 210 207 209 218 209 208 196 201 209 206 216 216 218 226 231 234 235 242 227 239 240 244 248 253 250 236 221 213 219 224 223 223 222 224 237 247 252
234 229 228 230 231 212 211 217 207 215 208 217 206 202 190 200 212 219 222 223 225 235 232 231 231 235 232 232 239 246 236 217 203 200 217 219 213 222 243 247 246 253 257
216 222 221 222 230 216 218 223 211 224 206 226 229 195 178 191 211 201 218 229 230 219 219 228 235 231 229 232 204 181 213 211 208 214 221 211 225 241 248 259 260 259 265
215 219 224 220 216 229 226 226 219 220 224 222 224 221 208 203 189 199 216 214 215 229 219 234 216 222 227 221 232 236 224 217 224 220 217 224 250 264 253 262 265 261 261
212 220 227 229 221 217 220 234 227 221 222 234 223 228 226 202 210 212 207 217 217 221 227 222 215 210 207 207 216 218 228 234 228 233 234 246 250 255 266 261 259 261 272
226 223 230 228 223 220 226 229 233 230 227 228 235 230 225 219 215 215 212 210 214 218 216 210 208 205 206 211 215 224 220 214 220 225 239 243 254 264 259 257 261 268 269
233 239 230 229 233 227 228 228 225 227 231 232 241 233 237 247 234 236 230 212 208 212 213 215 215 215 215 216 218 220 223 227 233 237 246 254 256 256 250 261 274 279 276
238 236 235 231 222 229 224 221 221 224 226 230 233 237 240 229 237 238 247 231 215 217 219 220 221 220 223 226 229 232 236 244 252 256 255 254 255 255 265 278 283 281 282
235 235 239 232 216 215 219 219 217 216 221 227 233 242 233 236 235 240 242 243 242 226 220 222 221 224 226 227 230 234 241 250 255 258 261 263 268 277 286 282 280 278 281
237 231 226 219 223 216 209 206 211 218 217 222 229 238 249 255 248 242 243 248 240 236 226 226 224 230 224 226 232 239 244 248 253 257 264 273 278 272 270 271 273 276 278
249 241 215 213 217 204 199 192 188 189 197 212 223 231 226 237 244 236 244 241 236 238 240 218 223 218 221 224 228 232 239 244 255 269 273 275 275 274 275 276 277 279 282
213 205 199 195 193 182 184 184 181 181 182 191 189 196 206 201 198 207 210 212 220 218 224 203 197 202 205 211 221 226 242 251 255 264 268 270 274 279 284 285 285 290 294
174 168 165 163 159 152 155 156 152 149 151 152 147 147 150 151 148 153 146 141 151 155 166 174 189 191 196 205 219 234 247 261 269 271 276 281 288 291 289 286 289 291 292
139 135 134 131 129 130 132 131 130 132 133 133 132 129 123 124 122 120 118 122 126 147 154 151 170 175 182 196 222 244 258 268 275 281 286 290 288 286 286 290 295 296 299
129 126 123 121 120 120 119 121 122 121 121 119 117 117 119 119 121 118 115 120 119 123 133 138 153 174 187 216 239 255 272 285 290 295 288 290 293 295 294 296 298 301 303
118 118 119 121 121 117 118 118 119 120 120 119 120 120 119 118 117 116 119 119 121 125 128 145 158 180 202 247 277 292 297 304 315 308 306 298 303 304 303 300 301 305 305
113 113 113 115 113 112 114 114 116 117 117 116 114 116 119 119 119 115 110 114 116 113 153 169 200 271 288 290 295 298 304 308 307 310 310 307 308 311 307 308 311 310 309
116 116 115 116 113 110 111 109 109 110 113 115 116 118 118 116 110 100 97 90 80 100 106 310 292 294 301 302 306 311 316 311 309 314 310 310 318 311 311 314 316 314 305
111 113 111 111 113 113 114 115 115 117 117 117 115 114 108 99 88 84 68 51 18 347 344 331 319 310 310 308 308 307 309 309 309 315 315 310 316 316 314 315 315 315 314
113 111 113 113 112 112 112 111 113 115 114 112 107 97 82 63 50 46 25 352 331 326 319 318 316 315 311 309 308 307 307 308 309 317 316 315 314 320 318 314 310 306 312